TimeEST,TemperatureF,Dew PointF,Humidity,Sea Level PressureIn,VisibilityMPH,Wind Direction,Wind SpeedMPH,Gust SpeedMPH,PrecipitationIn,Events,Conditions,WindDirDegrees,DateUTC
12:55 AM,36.7,33.4,88,30.08,10.0,Calm,Calm,-,N/A,,Clear,0,2013-01-21 05:55:00
1:55 AM,37.0,34.0,89,30.08,10.0,Calm,Calm,-,N/A,,Clear,0,2013-01-21 06:55:00
2:55 AM,35.1,32.5,91,30.07,10.0,Calm,Calm,-,N/A,,Clear,0,2013-01-21 07:55:00
3:55 AM,35.2,32.9,91,30.07,10.0,Calm,Calm,-,N/A,,Clear,0,2013-01-21 08:55:00
4:55 AM,33.6,32.2,94,30.06,10.0,Calm,Calm,-,N/A,,Clear,0,2013-01-21 09:55:00
5:55 AM,33.4,32.2,95,30.06,10.0,Calm,Calm,-,N/A,,Clear,0,2013-01-21 10:55:00
6:55 AM,32.0,30.0,92,30.06,10.0,Calm,Calm,-,N/A,,Clear,0,2013-01-21 11:55:00
7:55 AM,30.0,28.0,92,30.08,10.0,NNW,4.6,-,N/A,,Clear,330,2013-01-21 12:55:00
8:55 AM,40.5,35.8,83,30.09,10.0,Calm,Calm,-,N/A,,Clear,0,2013-01-21 13:55:00
9:55 AM,50.0,36.3,59,30.10,10.0,Calm,Calm,-,N/A,,Clear,0,2013-01-21 14:55:00
10:55 AM,54.0,35.4,50,30.09,10.0,Calm,Calm,-,N/A,,Clear,0,2013-01-21 15:55:00
11:55 AM,58.8,34.7,40,30.04,10.0,SW,8.1,-,N/A,,Clear,220,2013-01-21 16:55:00
12:55 PM,63.1,32.7,32,30.01,10.0,SW,6.9,-,N/A,,Clear,220,2013-01-21 17:55:00
1:55 PM,64.9,26.6,24,29.98,10.0,West,13.8,-,N/A,,Clear,260,2013-01-21 18:55:00
2:55 PM,64.6,24.1,21,29.97,10.0,West,13.8,-,N/A,,Clear,270,2013-01-21 19:55:00
3:55 PM,64.2,23.7,21,29.96,10.0,West,19.6,23.0,N/A,,Clear,260,2013-01-21 20:55:00
4:55 PM,61.5,26.4,26,29.98,10.0,West,13.8,-,N/A,,Clear,270,2013-01-21 21:55:00
5:55 PM,58.3,28.2,32,29.99,10.0,WSW,8.1,-,N/A,,Clear,250,2013-01-21 22:55:00
6:55 PM,54.3,29.1,38,30.00,10.0,WSW,5.8,-,N/A,,Clear,240,2013-01-21 23:55:00
7:55 PM,53.2,30.4,42,30.01,10.0,WSW,4.6,-,N/A,,Clear,240,2013-01-22 00:55:00
8:55 PM,53.2,31.5,43,30.02,10.0,West,8.1,-,N/A,,Clear,270,2013-01-22 01:55:00
9:55 PM,52.7,29.1,40,30.04,10.0,West,9.2,18.4,N/A,,Clear,270,2013-01-22 02:55:00
10:55 PM,50.2,26.1,39,30.05,10.0,West,9.2,-,N/A,,Clear,270,2013-01-22 03:55:00
11:55 PM,48.0,22.1,36,30.06,10.0,West,6.9,-,N/A,,Clear,260,2013-01-22 04:55:00